STARLINK-1165 (45059 NORAD) Tracking and Keplerian Element Data

This shows tracking and keplerian element data for the satellite.

Feedback or suggestion? Click here.




ElementValue
Catalog45059
NameSTARLINK-1165
Epoch Orbit934
Epoch Day87.91667824
Epoch Year2020
RAAN320.2436
Inclination53.0027
Eccentricity0.0001474
Argument of Perigee80.3236
Mean Anonmoly251.1669
Mean Motion15.03958334
Decay Rate-0.00017673
L11 45059U 20006R 20087.91667824 -.00017673 00000-0 -12502-2 0 9999
L22 45059 53.0027 320.2436 0001474 80.3236 251.1669 15.03958334 9347

Live tracking and technical data element details for STARLINK-1165 (NORAD 45059). STARLINK-1165 can be tracked NOW for your location showing map with azimuth and elevation plus other details from your city location.

Track the satellite on the map from your city or location and see movement details for azimuth, elevation, latitude, longitude, range, height, and movement on the map or in text.







IsCatalogInMostPopularTable: catalog: 45059, numindb: 10
Update: records affected: 1



GetName: 45059 STARLINK-1165

Hit Count: updated at: Mon, 30 Mar 2020 12:18:58 GMT